Location: Bílinka
(49.3579°N, 14.3767°E)
Time: 00:21:29
(UTC+00:00)

ATLAS CENTAUR R/B - Pass Details

Date: 28 January 2023
Orbit: 449 x 650 km, 64.7° (Epoch: 28 March)

Event Time Altitude Azimuth Distance (km) Brightness Sun altitude
Rises 17:35:04 0° 208° (SSW) 2,987 5.6 -16.8°
Reaches altitude 10° 17:37:25 10° 205° (SSW) 2,072 4.7 -17.2°
Maximum altitude 17:42:05 63° 125° (SE) 726 1.6 -17.9°
Enters shadow 17:43:55 35° 58° (ENE) 1,048 2.2 -18.2°
